C/2019 Y1 ( ATLAS )

Japanese version
Home page
Updated on July 7, 2020

---------------------------------------------------------------------

* Profile

Discovery Date December 16, 2019
Magnitude 17.9 mag
Discoverer Asteroid Terrestrial-Impact Last Alert System (ATLAS) search program

* Pictures

* Orbital Elements

Epoch 2020 Mar. 12.0 TT = JDT 2458920.5
T 2020 Mar. 15.56257 TT                                 Rudenko
q   0.8378163            (2000.0)            P               Q
z  +0.0042572      Peri.   57.49766     +0.33301606     -0.80026268
 +/-0.0000024      Node    31.36620     +0.12452630     -0.48690725
e   0.9964333      Incl.   73.34827     +0.93466224     +0.35000138
From 814 observations 2019 Dec. 16-2020 June 17, mean residual 1".0.

* Finding Charts

* Magnitudes Graph

        m1 = 8.5 + 5 log d + 25.0 log r(t - 10)  [  ,10]  (             - 2020 Mar. 25)
        m1 = 8.0 + 5 log d + 17.5 log r(t - 10)  [10,  ]  (2020 Mar. 25 -             )

---------------------------------------------------------------------

The orbital elements are published on M.P.E.C. 2020-N08.
The charts are made with StellaNavigator Ver.10 (AstroArts).
The magnitudes graphs are made with Comet for Windows.

---------------------------------------------------------------------

Copyright(C) Seiichi Yoshida (comet@aerith.net). All rights reserved.